Regional Weather Roundup
Issued by NWS

Home | Current Version | Previous Version | Text Only | Print | Product List | Glossary On
Versions: 1 2 3 4 5 6 7 8 9 10 11 12 13 14 15 16 17 18 19 20 21 22 23 24 25 26 27
000
ASUS46 KSEW 231710
RWRWA

WASHINGTON REGIONAL WEATHER ROUNDUP
NATIONAL WEATHER SERVICE SEATTLE WA
1000 AM PDT WED APR 23 2014

NOTE:"FAIR" INDICATES FEW OR NO CLOUDS BELOW 12,000 FEET WITH NO
SIGNIFICANT WEATHER AND/OR OBSTRUCTIONS TO VISIBILITY.

WAZ505-507>509-231800-
SEATTLE, TACOMA, EVERETT, AND VICINITY

CITY           SKY/WX    TMP DP  RH WIND       PRES   REMARKS
EVERETT        CLOUDY    47  38  71 S10       29.88F
BOEING FIELD   PTSUNNY   51  41  68 S10       29.91S
RENTON         PTSUNNY   51  43  74 S13       29.90F
SEATAC AIRPORT PTSUNNY   49  43  80 S12       29.90F
JBLM-MCCHORD   CLOUDY    48  45  87 S15G22    29.91S
PUYALLUP         N/A     46  41  81 SW5       29.91S
JBLM-FT LEWIS  DRIZZLE   47  43  86 SE14      29.90F
TACOMA NARROWS CLOUDY    45  43  93 VRB3      29.90F
$$

WAZ001-503-506-510-514-515-231800-
NORTH INTERIOR

CITY           SKY/WX    TMP DP  RH WIND       PRES   REMARKS
BELLINGHAM     CLOUDY    49  40  71 S10G17    29.87F
FRIDAY HARBOR  PTSUNNY   49  42  77 SE12      29.88S
EASTSOUND      MOSUNNY   48  41  76 S13G18    29.85S
PORT ANGELES   CLOUDY    50  42  74 NE6       29.85F
NAS WHIDBEY    PTSUNNY   51  40  65 SE15      29.88S
BURLINGTON     CLOUDY    48  43  81 SE12G18   29.89F
$$

WAZ020-022-039-040-504-511-512-231800-
SOUTHWEST INTERIOR

CITY           SKY/WX    TMP DP  RH WIND       PRES   REMARKS
SHELTON        CLOUDY    47  42  83 CALM      29.88S
OLYMPIA        LGT RAIN  46  43  89 S13       29.90S
CHEHALIS       LGT RAIN  46  45  93 S10G17    29.93S
KELSO          CLOUDY    46  43  87 SE6       29.96F
VANCOUVER      LGT RAIN  49  44  83 S5        29.94F
SCAPPOOSE, OR  LGT RAIN  48  46  93 SE7       29.93S FOG
PORTLAND, OR   LGT RAIN  49  45  86 S12       29.94F
$$

WAZ021-516-517-231800-
WASHINGTON COAST

CITY           SKY/WX    TMP DP  RH WIND       PRES   REMARKS
FORKS          LGT RAIN  46  45  96 SE5       29.84S FOG
HOQUIAM        CLOUDY    50  46  86 E8        29.86F
ASTORIA, OR    LGT RAIN  49  47  93 MISG      29.87F
$$

WAZ019-023-024-040-518-519-231800-
CASCADE MOUNTAINS AND COLUMBIA GORGE

CITY           SKY/WX    TMP DP  RH WIND       PRES   REMARKS
STAMPEDE PASS  NOT AVBL
TROUTDALE, OR  CLOUDY    48  45  89 CALM      29.94F
THE DALLES, OR LGT RAIN  48  43  82 NW8       29.95F
$$

WAZ026-027-041>044-520-521-231800-
EAST SLOPES

CITY           SKY/WX    TMP DP  RH WIND       PRES   REMARKS
OMAK           MOSUNNY   47  31  53 SE5       29.83S
WENATCHEE      SUNNY     51  32  48 S5        29.82F
ELLENSBURG     MOSUNNY   48  37  65 W8        29.86F
YAKIMA         MOSUNNY   51  36  56 CALM      29.89S
$$

WAZ028-034-035-231800-
COLUMBIA BASIN

CITY           SKY/WX    TMP DP  RH WIND       PRES   REMARKS
EPHRATA        MOSUNNY   50  35  56 SW9       29.84F
MOSES LAKE     PTSUNNY   51  34  52 SW12      29.86F
HANFORD        NOT AVBL
PASCO          MOSUNNY   54  36  50 SW24G33   29.91F
HERMISTON, OR  MOSUNNY   55  38  52 SW8       29.93F
$$

WAZ036>038-231800-
NORTHEAST WASHINGTON

CITY           SKY/WX    TMP DP  RH WIND       PRES   REMARKS
SPOKANE GEIGER PTSUNNY   42  34  73 SW20      29.83R
SPOKANE FELTS  CLOUDY    45  35  68 SW13      29.85S
FAIRCHILD AFB  DRIZZLE   42  35  74 SW15G22   29.83S
COEURDALENE,ID CLOUDY    37  36  93 SE8       29.85S
DEER PARK      CLOUDY    39  36  89 CALM      29.85R
$$

WAZ029>033-231800-
SOUTHEAST WASHINGTON

CITY           SKY/WX    TMP DP  RH WIND       PRES   REMARKS
PULLMAN        CLOUDY    40  35  83 SW20G25   29.90S
LEWISTON, ID   CLOUDY    48  33  56 N5        29.91S
WALLA WALLA    PTSUNNY   50  39  66 S12       29.94F
PENDLETON, OR  MOSUNNY   54  33  45 W17G24    29.92S
$$



USA.gov is the U.S. government's official web portal to all federal, state and local government web resources and services.